San Fernando Airport
SADF : rendu visible

Aérodrome :











RETROUVEZ-NOUS SUR...

 
LOGIN :

S'inscrire | Disclaimer

   EN    FR    IT 

 









Légende :    VFR   VFR Marginal   IFR   IFR Intensif   IFR Très Intensif
Visi : 
Plafond : 
>= 8 km
>= 3000ft
5 à 8 km
1000 à 3000 ft
1500m à 5 km
500 à 1000 ft
800 à 1500m
200 à 500 ft
< 800m
< 200 ft
Symboles :   Orages  Brouillard  Fortes neiges  Fortes précipitations  Vent > 20 kt






- Altitude de l'aérodrome : 10 ft
- Code IATA : FDO


SADF - San Fernando

DERNIER METAR :
  • 241900Z 15014KT 9000 FEW048 BKN200 30/19 Q1007

METARs EXPIRÉS :
  • 241800Z 12005KT 9999 FEW048 BKN100 BKN200 32/19 Q1007
  • 241700Z 09006KT 9999 FEW045 BKN200 30/19 Q1008

TAF TAF SADF
Valide du 24 à 18h jusqu'au 25 à 18h UTC


241700Z 2418/2518 09015KT 9999 SCT040 SCT045TCU TX31//2518Z TN20/2509Z
TEMPO 2418/2422 7000 SHRA SCT040 SCT045TCU FEW045CB
BECMG 2422/2424 11015G25KT 5000 TSRA BKN030 SCT045CB OVC050
BECMG 2509/2511 VRB03KT 9999 NWS SCT025 BKN100
BECMG 2512/2514 18010KT SCT035
FIR SAEF / Amérique du Sud



MET'MAP, la Météo Aéronautique d'un coup d'oeil ! - Copyright ORBIFLY Décembre 2007 - Disclaimer

ORBIFLY MET'MAP TEAM :

Programmation & Développement : Alexandra Zaïnal
Sur une idée originale de : Baudouin d'Aumeries
Assistance à la programmation : Marc-Olivier Méhu
Soutien technique & logistique : Manuel Goepfert

Contact : metmap@orbifly.com




SOURCES & CREDITS :

   NOAA       Earth
Advisory